Current Version              Previous Version:    01  02  03  04  05  06  07  08  09  10  11  12  13  14  15  16  17  18  19  20  21  22  23  24  25  26  27  28  29  30  
   31  32  33  34  35  36  37  38  39  40  41  42  43  44  45  46  47  48  49  50  51  52  53  54  55  56  57  58  59  60  

[Printable]
728
ASUS44 KFWD 241103
RWRTX
NORTH TEXAS HOURLY WEATHER ROUNDUP
NATIONAL WEATHER SERVICE FORT WORTH TX
600 AM CDT FRI OCT 24 2014

NOTE: "FAIR" INDICATES FEW OR NO CLOUDS BELOW 12,000 FEET WITH NO
SIGNIFICANT WEATHER AND/OR OBSTRUCTIONS TO VISIBILITY.

TXZ118-119-241200-
DALLAS/FORT WORTH METROPLEX

CITY           SKY/WX    TMP DP  RH WIND       PRES   REMARKS
DFW AIRPORT    PTCLDY    63  55  75 S7        30.12R
DALLAS LOVE    PTCLDY    63  56  78 SE7       30.13R
FTW MEACHAM    MOCLDY    62  55  77 S3        30.11R
DAL-EXECUTIVE  PTCLDY    63  55  75 S5        30.12R
FTW-ALLIANCE   PTCLDY    60  55  83 S3        30.11R
FTW-NAS-JRB    CLEAR     68  54  60 SE6       30.16R
FTW-SPINKS     PTCLDY    61  55  81 S3        30.13S
ARLINGTON      CLEAR     61  54  77 SE3       30.12S
GRAND PRAIRIE  CLEAR     63  56  80 S3        30.13S
ADDISON        MOCLDY    63  55  77 E7        30.03F
LANCASTER      CLEAR     57  54  88 CALM      30.15R
$$

TXZ091>094-102>105-117-120-121-131>134-241200-
NORTH CENTRAL TEXAS

CITY           SKY/WX    TMP DP  RH WIND       PRES   REMARKS
SHRMAN/DENISON CLEAR     59  56  89 SE7       30.14R
GAINESVILLE    PTCLDY    57  55  93 SE7       30.13S
BOWIE          CLEAR     57  56  94 SE3       30.10S
BRIDGEPORT     CLEAR     57  57 100 E3        30.13R
DECATUR        CLEAR     63  54  73 S9        30.11S
DENTON         PTCLDY    60  56  86 SE7       30.12R
MCKINNEY       MOCLDY    58  55  90 CALM      30.13S
GREENVILLE     CLEAR     54  52  94 CALM      30.15R
ROCKWALL       PTCLDY    58  55  89 SE3       30.13R
TERRELL        MOCLDY    57  54  89 CALM      30.15R
WAXAHACHIE     MOCLDY    59  56  89 CALM      30.15R
CLEBURNE       PTCLDY    61  59  94 S7        30.14R
GRANBURY       CLEAR     62  57  83 SE3       30.13R
$$

TXZ083>090-098>101-113>116-127>130-139>142-154-155-241200-
WESTERN NORTH TEXAS

CITY           SKY/WX    TMP DP  RH WIND       PRES   REMARKS
WICHITA FALLS  CLEAR     59  56  89 S7        30.07S
WF-KICKAPOO    CLEAR     59  56  90 S6        30.09S
VERNON         CLEAR     59  55  88 CALM      30.08S
ABILENE        CLEAR     62  59  90 SW7       30.12R
ABILENE-DYESS  CLEAR     62  58  86 SW3       30.10S
BRECKENRIDGE   CLEAR     63  58  84 S7        30.10S
MINERAL WELLS  CLEAR     59  56  89 SE6       30.10R FOG
STEPHENVILLE   CLEAR     59  55  87 S3        30.15R
COMANCHE       CLEAR     62  60  93 S7        30.12S
COLEMAN        CLEAR     59  59 100 CALM      30.14R FOG
BRADY          CLEAR     61  61 100 S3        30.13S
$$

TXZ143>147-156>162-174-175-241200-
CENTRAL TEXAS

CITY           SKY/WX    TMP DP  RH WIND       PRES   REMARKS
WACO           PTCLDY    63  55  75 S9        30.13S
WACO-MCGREGOR  CLEAR     61  50  67 S5        30.14S
HILLSBORO      PTCLDY    61  54  76 SE6       30.13S
CORSICANA      MOCLDY    57  54  89 S3        30.15R
MEXIA          PTCLDY    56  54  91 CALM      30.13S
HEARNE         CLEAR     55  53  94 CALM      30.14S FOG
CAMERON        CLEAR     58  55  88 CALM      30.14R
TEMPLE         CLEAR     57  50  77 SE5       30.13R
KILLEEN        CLEAR     60  55  84 S7        30.13S
KILLEEN-SKYLRK CLEAR     63  52  67 SE6       30.11R
FORT HOOD      CLEAR     63  56  78 SE3       30.13S
GATESVILLE     CLEAR     59  55  88 CALM      30.15S
HAMILTON       CLEAR     59  56  89 SE7       30.14S
LAMPASAS       CLEAR     58  56  91 CALM      30.12S
$$

TXZ095>097-106>112-122>126-135>138-148>153-164>167-241200-
EAST TEXAS

CITY           SKY/WX    TMP DP  RH WIND       PRES   REMARKS
PARIS          CLEAR     52  45  76 E6        30.16R
SULPHUR SPRNGS CLEAR     54  52  94 CALM      30.17R
MOUNT PLEASANT PTCLDY    51  50  98 CALM      30.17R
MINEOLA        CLEAR     52  52 100 CALM      30.16R
TYLER          CLOUDY    57  53  86 S3        30.14R
LONGVIEW       CLEAR     51  49  92 CALM      30.14S
MARSHALL       CLEAR     51  49  92 CALM      30.17S
ATHENS         MOCLDY    52  52 100 CALM      30.14R
PALESTINE      CLEAR     54  53  96 CALM      30.15S
JACKSONVILLE   CLEAR     56  50  82 CALM      30.16S
HENDERSON      CLEAR     50  50 100 CALM      30.15S
NACOGDOCHES    CLEAR     46  45  93 CALM      30.15S
LUFKIN         CLEAR     54  49  83 CALM      30.14S
$$

SUPPLEMENTAL OBSERVATIONS (CENTRAL)

CITY           SKY/WX    TMP DP  RH WIND       PRES   REMARKS
$$

SUPPLEMENTAL OBSERVATIONS (WEST)

CITY           SKY/WX    TMP DP  RH WIND       PRES   REMARKS
$$

SUPPLEMENTAL OBSERVATIONS (EAST)

CITY           SKY/WX    TMP DP  RH WIND       PRES   REMARKS
$$

SUPPLEMENTAL OBSERVATIONS ARE A COLLECTION OF AUTOMATED INSTRUMENTS
THAT ARE MAINTAINED BY A VARIETY OF FEDERAL AND STATE AGENCIES.
CERTAIN ELEMENTS...SUCH AS HUMIDITY VALUES AND SUSTAINED WIND
SPEEDS...MAY BE APPROXIMATED.